Location: Karcze
(52.0945°N, 22.4786°E)
Time: 23:33:46
(UTC+00:00)

A-11 Canister half - Pass Details

Date: 01 August 2021
Orbit: 1515 x 1685 km, 47.2° (Epoch: 19 September)

Event Time Altitude Azimuth Distance (km) Brightness Sun altitude
Rises 16:52:02 0° 245° (WSW) 4,809 12.5 11.6°
Reaches altitude 10° 16:55:08 10° 242° (WSW) 3,847 12.0 11.2°
Maximum altitude 17:04:47 62° 165° (SSE) 1,833 9.5 9.8°
Drops below altitude 10° 17:14:42 10° 89° (E) 3,948 10.6 8.3°
Sets 17:17:56 0° 86° (E) 4,942 11.1 7.8°
